TimePST,TemperatureF,Dew PointF,Humidity,Sea Level PressureIn,VisibilityMPH,Wind Direction,Wind SpeedMPH,Gust SpeedMPH,PrecipitationIn,Events,Conditions,WindDirDegrees,DateUTC
12:53 AM,37.0,34.0,89,30.13,5.0,Calm,Calm,-,N/A,,Clear,0,2013-01-22 08:53:00
1:53 AM,36.0,32.0,86,30.13,5.0,Calm,Calm,-,N/A,,Clear,0,2013-01-22 09:53:00
2:53 AM,36.0,34.0,93,30.12,4.0,Calm,Calm,-,N/A,,Clear,0,2013-01-22 10:53:00
3:53 AM,35.1,32.0,89,30.10,4.0,Calm,Calm,-,N/A,,Clear,0,2013-01-22 11:53:00
4:53 AM,35.1,33.1,92,30.10,5.0,Calm,Calm,-,N/A,,Clear,0,2013-01-22 12:53:00
5:53 AM,34.0,32.0,92,30.12,6.0,Calm,Calm,-,N/A,,Clear,0,2013-01-22 13:53:00
6:53 AM,34.0,32.0,92,30.12,5.0,Calm,Calm,-,N/A,,Clear,0,2013-01-22 14:53:00
7:29 AM,33.8,32.0,93,30.12,2.5,Calm,Calm,-,N/A,,Clear,0,2013-01-22 15:29:00
7:53 AM,34.0,32.0,92,30.13,3.0,Calm,Calm,-,N/A,,Clear,0,2013-01-22 15:53:00
8:53 AM,37.9,35.1,89,30.12,5.0,Calm,Calm,-,N/A,,Clear,0,2013-01-22 16:53:00
9:53 AM,46.0,39.0,76,30.12,5.0,West,4.6,-,N/A,,Haze,260,2013-01-22 17:53:00
10:53 AM,57.0,37.9,49,30.11,10.0,ENE,15.0,-,N/A,,Clear,60,2013-01-22 18:53:00
11:53 AM,57.9,37.9,47,30.08,10.0,ENE,10.4,-,N/A,,Clear,70,2013-01-22 19:53:00
12:53 PM,59.0,39.9,49,30.06,9.0,ENE,9.2,-,N/A,,Clear,60,2013-01-22 20:53:00
1:53 PM,60.1,39.9,47,30.04,8.0,ENE,5.8,-,N/A,,Clear,60,2013-01-22 21:53:00
2:53 PM,61.0,42.1,50,30.04,8.0,ENE,3.5,-,N/A,,Overcast,60,2013-01-22 22:53:00
3:53 PM,57.0,43.0,59,30.03,6.0,East,9.2,-,N/A,,Haze,80,2013-01-22 23:53:00
4:53 PM,55.0,43.0,64,30.03,5.0,ENE,6.9,-,N/A,,Haze,70,2013-01-23 00:53:00
5:53 PM,50.0,42.1,74,30.03,7.0,ENE,5.8,-,N/A,,Clear,60,2013-01-23 01:53:00
6:53 PM,50.0,42.1,74,30.03,6.0,Calm,Calm,-,N/A,,Haze,0,2013-01-23 02:53:00
7:53 PM,48.9,42.1,77,30.03,5.0,East,3.5,-,N/A,,Haze,80,2013-01-23 03:53:00
8:53 PM,46.9,42.1,83,30.04,5.0,Calm,Calm,-,N/A,,Haze,0,2013-01-23 04:53:00
9:53 PM,45.0,41.0,86,30.05,5.0,Calm,Calm,-,N/A,,Clear,0,2013-01-23 05:53:00
10:53 PM,45.0,42.1,90,30.06,5.0,Calm,Calm,-,N/A,,Clear,0,2013-01-23 06:53:00
11:53 PM,45.0,41.0,86,30.05,5.0,Calm,Calm,-,N/A,,Clear,0,2013-01-23 07:53:00